Location: Kielce
(50.8833°N, 20.6167°E)
Time: 21:23:31
(UTC+02:00)

SR - Pass Details

Date: 25 April 2021
Orbit: 573 x 882 km, 66.7° (Epoch: 09 May)

Event Time Altitude Azimuth Distance (km) Brightness Sun altitude
Rises 11:18:12 0° 302° (WNW) 3,480 ? 49.3°
Reaches altitude 10° 11:21:41 10° 322° (NW) 2,550 ? 49.6°
Maximum altitude 11:25:28 17° 2° (N) 2,083 ? 49.8°
Drops below altitude 10° 11:29:13 10° 41° (NE) 2,520 ? 50.1°
Sets 11:32:38 0° 62° (ENE) 3,421 ? 50.3°
